This demonstration page uses our WeatherBlox Daily Observations layout. Learn more.

41.86663, -103.66717

Hourly Observations for December 24, 2019

Temp ( °F °C ) Dew Point ( °F °C ) Humidity (%) Winds ( mph kmh ) Pressure ( in mb ) Visibility ( mi km ) Precip ( " mm )
12:53 am 00:53 Clear 34 1.1 29 -1.7 82 82 WNW 7 11 29.83 1010 10 16.0934 0 0
1:53 am 01:53 Clear 33 0.6 29 -1.7 85 85 WNW 9 15 29.84 1011 10 16.0934 0 0
2:53 am 02:53 Clear 32 0 29 -1.7 88 88 E 3 6 29.84 1010 10 16.0934 0 0
3:53 am 03:53 Clear 34 1.1 29 -1.7 82 82 NW 6 9 29.84 1011 10 16.0934 0 0
4:53 am 04:53 Clear 33 0.6 28 -2.2 82 82 N 8 13 29.85 1011 10 16.0934 0 0
5:53 am 05:53 Clear 33 0.6 28 -2.2 82 82 NW 7 11 29.85 1011 10 16.0934 0 0
6:53 am 06:53 Clear 34 1.1 28 -2.2 79 79 WNW 7 11 29.87 1011 10 16.0934 0 0
7:53 am 07:53 Sunny 34 1.1 29 -1.7 82 82 NW 9 15 29.87 1012 10 16.0934 0 0
8:53 am 08:53 Sunny 37 2.8 29 -1.7 73 73 WNW 8 13 29.88 1012 10 16.0934 0 0
9:53 am 09:53 Sunny 40 4.4 29 -1.7 65 65 NW 10 17 29.87 1012 10 16.0934 0 0
10:53 am 10:53 Sunny 41 5 30 -1.1 65 65 NW 6 9 29.84 1011 10 16.0934 0 0
11:53 am 11:53 Sunny 43 6.1 29 -1.7 58 58 W 3 6 29.8 1009 10 16.0934 0 0
12:53 pm 12:53 Sunny 46 7.8 28 -2.2 50 50 Calm 29.75 1007 10 16.0934 0 0
1:53 pm 13:53 Sunny 48 8.9 27 -2.8 44 44 Calm 29.74 1007 10 16.0934 0 0
2:53 pm 14:53 Sunny 47 8.3 30 -1.1 52 52 E 3 6 29.75 1007 10 16.0934 0 0
3:53 pm 15:53 Sunny 44 6.7 29 -1.7 55 55 ENE 6 9 29.75 1008 10 16.0934 0 0
4:53 pm 16:53 Clear 34 1.1 27 -2.8 76 76 ESE 5 7 29.77 1008 10 16.0934 0 0
5:53 pm 17:53 Clear 32 0 26 -3.3 79 79 Calm 29.77 1008 10 16.0934 0 0
6:53 pm 18:53 Clear 32 0 26 -3.3 79 79 Calm 29.75 1008 10 16.0934 0 0
7:53 pm 19:53 Clear 31 -0.6 24 -4.4 76 76 N 5 7 29.74 1007 10 16.0934 0 0
8:53 pm 20:53 Clear 31 -0.6 23 -5 72 72 N 5 7 29.72 1006 10 16.0934 0 0
9:53 pm 21:53 Clear 27 -2.8 24 -4.4 89 89 NE 3 6 29.74 1007 10 16.0934 0 0
10:53 pm 22:53 Clear 28 -2.2 24 -4.4 85 85 NE 3 6 29.72 1007 10 16.0934 0 0
11:53 pm 23:53 Clear 29 -1.7 24 -4.4 82 82 Calm 29.69 1006 10 16.0934 0 0

Powered by AerisWeather